Location: Newark
(44.3248°N, 23.7839°E)
Time: 23:55:06
(UTC+00:00)

X-37B - Pass Details

Date: 01 February 2022
Orbit: 329 x 342 km, 45.0° (Epoch: 18 May)

Event Time Altitude Azimuth Distance (km) Brightness Sun altitude
Rises 16:08:40 0° 257° (WSW) 2,119 6.9 -6.6°
Reaches altitude 10° 16:10:40 10° 257° (WSW) 1,280 5.0 -7.0°
Maximum altitude 16:13:33 87° 169° (S) 343 0.3 -7.5°
Enters shadow 16:16:16 11° 80° (E) 1,217 2.4 -7.9°
